F6273 Weather Reports


time (UTC)temp
C
wind
direction
speed
KPH
gust
KPH
rain 1hr
cm
rain 24hr
cm
rain mn
cm
humidity
%
barometer
mb
20260507093527 17 76 1.6 12.9 0.00 0.00 0.00 57 1009.8
20260507093039 17 107 4.8 14.5 0.00 0.00 0.00 56 1010.0
20260507092527 17 150 6.4 14.5 0.00 0.00 0.00 57 1010.0
20260507092030 17 92 4.8 14.5 0.00 0.00 0.00 57 1010.0
20260507091546 17 85 4.8 14.5 0.00 0.00 0.00 56 1010.0
20260507091025 17 101 4.8 12.9 0.00 0.00 0.00 57 1009.9
20260507090528 16 113 6.4 16.1 0.00 0.00 0.00 57 1009.9
20260507090046 16 117 4.8 16.1 0.00 0.00 0.00 58 1010.0
20260507085528 16 126 1.6 12.9 0.00 0.00 0.00 59 1010.0
20260507085028 16 99 3.2 17.7 0.00 0.00 0.00 61 1009.8
20260507084543 15 74 4.8 17.7 0.00 0.00 0.00 62 1009.8
20260507084027 15 86 6.4 14.5 0.00 0.00 0.00 64 1009.9
20260507083524 15 78 4.8 14.5 0.00 0.00 0.00 66 1009.7
20260507083039 14 103 1.6 6.4 0.00 0.00 0.00 72 1009.7
20260507082528 13 230 0.0 1.6 0.00 0.00 0.00 74 1009.7
20260507082027 13 0 0.0 1.6 0.00 0.00 0.00 76 1009.8
20260507081544 12 0 0.0 3.2 0.00 0.00 0.00 79 1009.8
20260507081027 12 0 0.0 3.2 0.00 0.00 0.00 79 1009.8
20260507080530 11 283 0.0 0.0 0.00 0.00 0.00 79 1009.8
20260507080043 11 0 0.0 6.4 0.00 0.00 0.00 79 1009.8
20260507075525 11 0 1.6 6.4 0.00 0.00 0.00 79 1009.8
20260507075027 11 30 3.2 6.4 0.00 0.00 0.00 78 1009.7
20260507074541 11 15 1.6 6.4 0.00 0.00 0.00 78 1009.7
20260507074031 11 15 3.2 6.4 0.00 0.00 0.00 77 1009.7
20260507073525 11 346 3.2 4.8 0.00 0.00 0.00 77 1009.8
20260507073046 11 0 0.0 0.0 0.00 0.00 0.00 77 1009.7
20260507072528 11 0 0.0 1.6 0.00 0.00 0.00 77 1009.8
20260507072027 11 0 0.0 1.6 0.00 0.00 0.00 78 1009.8
20260507071539 11 0 0.0 1.6 0.00 0.00 0.00 79 1009.9
20260507071027 10 0 0.0 3.2 0.00 0.00 0.00 81 1009.8
20260507070527 10 0 0.0 3.2 0.00 0.00 0.00 81 1009.8
20260507070047 10 0 0.0 3.2 0.00 0.00 0.00 82 1009.9
20260507065527 9 0 0.0 4.8 0.00 0.00 0.00 82 1009.9
20260507065027 9 0 0.0 4.8 0.00 0.00 0.00 81 1009.8
20260507064604 9 47 0.0 3.2 0.00 0.00 0.00 81 1009.7
20260507064027 9 0 0.0 1.6 0.00 0.00 0.00 81 1009.5
20260507063526 9 0 0.0 1.6 0.00 0.00 0.00 81 1009.5
20260507063047 9 0 0.0 0.0 0.00 0.00 0.00 81 1009.5
20260507062531 9 0 0.0 1.6 0.00 0.00 0.00 81 1009.5
20260507062028 9 0 0.0 1.6 0.00 0.00 0.00 81 1009.3
20260507061541 9 0 0.0 1.6 0.00 0.00 0.00 81 1009.2
20260507061027 9 0 0.0 1.6 0.00 0.00 0.00 81 1009.1
20260507060527 9 0 0.0 1.6 0.00 0.00 0.00 81 1009.1
20260507060039 9 0 0.0 3.2 0.00 0.00 0.00 81 1009.2
20260507055528 9 0 0.0 3.2 0.00 0.00 0.00 81 1009.1
20260507055027 9 0 0.0 3.2 0.00 0.00 0.00 81 1009.1
20260507054539 9 0 0.0 1.6 0.00 0.00 0.00 80 1009.1
20260507054024 9 0 0.0 0.0 0.00 0.00 0.00 80 1009.0
20260507053527 9 0 0.0 4.8 0.00 0.00 0.00 80 1009.1
20260507053045 9 0 0.0 4.8 0.00 0.00 0.00 80 1009.0
20260507052527 9 138 0.0 4.8 0.00 0.00 0.00 79 1009.0
20260507052031 9 0 1.6 3.2 0.00 0.00 0.00 79 1009.0
20260507051540 9 0 0.0 0.0 0.00 0.00 0.00 79 1008.9
20260507051030 9 0 0.0 0.0 0.00 0.00 0.00 79 1008.8
20260507050524 9 0 0.0 0.0 0.00 0.00 0.00 79 1008.8
20260507050041 9 0 0.0 1.6 0.00 0.00 0.00 78 1008.7
20260507045528 9 0 0.0 1.6 0.00 0.00 0.00 78 1008.7
20260507045028 9 0 0.0 4.8 0.00 0.00 0.00 77 1008.8
20260507044540 10 0 0.0 8.0 0.00 0.00 0.00 78 1008.8
20260507044029 10 336 1.6 8.0 0.00 0.00 0.00 78 1008.8
20260507043527 10 0 0.0 6.4 0.00 0.00 0.00 78 1008.9
20260507043041 10 0 1.6 8.0 0.00 0.00 0.00 79 1008.7
20260507042528 10 232 1.6 14.5 0.00 0.00 0.00 79 1008.8
20260507042027 10 351 3.2 14.5 0.00 0.00 0.00 79 1008.6
20260507041545 10 228 6.4 14.5 0.00 0.00 0.00 78 1008.7
20260507041027 10 344 4.8 14.5 0.00 0.00 0.00 78 1008.3
20260507040527 10 22 1.6 12.9 0.00 0.00 0.00 78 1008.7
20260507040045 10 0 0.0 12.9 0.00 0.00 0.00 77 1009.0
20260507035526 10 238 6.4 14.5 0.00 0.00 0.00 77 1009.2
20260507035027 10 217 3.2 14.5 0.00 0.00 0.00 76 1009.2
20260507034544 10 219 6.4 14.5 0.00 0.00 0.00 76 1009.3
20260507034024 10 209 1.6 8.0 0.00 0.00 0.00 75 1009.2
20260507033525 10 0 0.0 4.8 0.00 0.00 0.00 75 1009.1
20260507033057 10 0 1.6 4.8 0.00 0.00 0.00 75 1009.0
20260507032524 10 245 0.0 4.8 0.00 0.00 0.00 75 1009.0
20260507032027 10 0 0.0 1.6 0.00 0.00 0.00 75 1008.9
20260507031539 10 0 0.0 1.6 0.00 0.00 0.00 75 1008.9
20260507031027 10 0 0.0 1.6 0.00 0.00 0.00 75 1009.0
20260507030528 10 0 0.0 3.2 0.00 0.00 0.00 75 1008.9
20260507030040 10 0 0.0 3.2 0.00 0.00 0.00 75 1008.8
20260507025528 10 0 0.0 3.2 0.00 0.00 0.00 75 1009.0
20260507025027 10 0 0.0 0.0 0.00 0.00 0.00 74 1009.0
20260507024543 10 0 0.0 0.0 0.00 0.00 0.00 74 1008.9
20260507024027 10 0 0.0 0.0 0.00 0.00 0.00 74 1009.0
20260507023527 10 0 0.0 3.2 0.00 0.00 0.00 73 1008.9
20260507023040 10 0 0.0 6.4 0.00 0.00 0.00 72 1009.0
20260507022527 10 244 0.0 6.4 0.00 0.00 0.00 72 1009.0
20260507022030 11 235 0.0 3.2 0.00 0.00 0.00 72 1009.1
20260507021540 11 0 0.0 0.0 0.00 0.00 0.00 72 1009.0
20260507021025 11 0 0.0 6.4 0.00 0.00 0.00 72 1009.0
20260507020525 11 0 0.0 8.0 0.00 0.00 0.00 72 1008.9
20260507020043 11 0 1.6 8.0 0.00 0.00 0.00 72 1009.1
20260507015527 11 223 0.0 8.0 0.00 0.00 0.00 71 1009.1
20260507015026 11 0 0.0 3.2 0.00 0.00 0.00 71 1009.1
20260507014543 11 0 0.0 4.8 0.00 0.00 0.00 71 1009.2
20260507014027 11 0 0.0 6.4 0.00 0.00 0.00 71 1009.2
20260507013524 11 231 1.6 6.4 0.00 0.00 0.00 71 1009.1
20260507013041 11 0 1.6 6.4 0.00 0.00 0.00 70 1009.2
20260507012525 11 0 0.0 6.4 0.00 0.00 0.00 69 1009.3
20260507012025 11 0 0.0 4.8 0.00 0.00 0.00 68 1009.2
20260507011540 11 0 0.0 4.8 0.00 0.00 0.00 68 1009.3
20260507011024 11 219 0.0 6.4 0.00 0.00 0.00 67 1009.3
20260507010528 11 219 3.2 6.4 0.00 0.00 0.00 67 1009.4
20260507010041 11 221 3.2 8.0 0.00 0.00 0.00 66 1009.4
20260507005525 11 221 1.6 8.0 0.00 0.00 0.00 65 1009.3
20260507005024 11 233 4.8 8.0 0.00 0.00 0.00 65 1009.4
20260507004538 11 225 3.2 6.4 0.00 0.00 0.00 65 1009.3
20260507004027 11 233 1.6 6.4 0.00 0.00 0.00 64 1009.4
20260507003526 11 233 1.6 6.4 0.00 0.00 0.00 63 1009.5
20260507003047 12 237 3.2 6.4 0.00 0.00 0.00 62 1009.4
20260507002528 12 240 3.2 6.4 0.00 0.00 0.00 61 1009.4
20260507002025 11 0 0.0 4.8 0.00 0.00 0.00 61 1009.4
20260507001603 12 0 1.6 8.0 0.00 0.00 0.00 61 1009.3
20260507001024 12 240 3.2 8.0 0.00 0.00 0.00 61 1009.5
20260507000524 12 240 4.8 8.0 0.00 0.00 0.00 60 1009.5
20260507000046 12 248 0.0 3.2 0.00 0.00 0.00 61 1009.5
20260506235528 12 0 0.0 0.0 0.00 0.00 0.00 60 1009.5
20260506235028 12 0 0.0 0.0 0.00 0.00 0.00 60 1009.5
20260506234549 12 0 0.0 0.0 0.00 0.00 0.00 60 1009.4
20260506234027 12 0 0.0 0.0 0.00 0.00 0.00 60 1009.5
20260506233524 12 0 0.0 0.0 0.00 0.00 0.00 60 1009.7
20260506233039 12 0 0.0 0.0 0.00 0.00 0.00 59 1009.7
20260506232526 12 0 0.0 0.0 0.00 0.00 0.00 59 1009.7
20260506232027 13 0 0.0 0.0 0.00 0.00 0.00 59 1009.7
20260506231539 13 0 0.0 0.0 0.00 0.00 0.00 59 1009.7
20260506231025 13 0 0.0 0.0 0.00 0.00 0.00 58 1009.6
20260506230528 13 0 0.0 3.2 0.00 0.00 0.00 58 1009.7
20260506230040 13 0 0.0 4.8 0.00 0.00 0.00 58 1009.5
20260506225531 13 248 0.0 6.4 0.00 0.00 0.00 58 1009.5
20260506225029 12 248 1.6 8.0 0.00 0.00 0.00 59 1009.5
20260506224557 12 247 3.2 8.0 0.00 0.00 0.00 60 1009.6
20260506224027 12 226 4.8 11.3 0.00 0.00 0.00 61 1009.6
20260506223527 12 217 6.4 11.3 0.00 0.00 0.00 60 1009.5
20260506223048 13 240 6.4 11.3 0.00 0.00 0.00 58 1009.6
20260506222528 14 279 0.0 3.2 0.00 0.00 0.00 56 1009.4
20260506222029 14 0 0.0 0.0 0.00 0.00 0.00 56 1009.4
20260506221546 14 0 0.0 0.0 0.00 0.00 0.00 55 1009.5
20260506221029 14 0 0.0 0.0 0.00 0.00 0.00 55 1009.3
20260506220528 14 0 0.0 0.0 0.00 0.00 0.00 55 1009.4
20260506220101 14 0 0.0 0.0 0.00 0.00 0.00 55 1009.4
20260506215527 15 0 0.0 0.0 0.00 0.00 0.00 55 1009.5
20260506215028 15 0 0.0 0.0 0.00 0.00 0.00 55 1009.4
20260506214539 15 0 0.0 0.0 0.00 0.00 0.00 53 1009.6
20260506214033 15 0 0.0 0.0 0.00 0.00 0.00 53 1009.4
20260506213528 15 0 0.0 0.0 0.00 0.00 0.00 53 1009.4
20260506213038 15 0 0.0 3.2 0.00 0.00 0.00 52 1009.4
20260506212529 15 0 0.0 3.2 0.00 0.00 0.00 52 1009.4
20260506212027 15 0 0.0 0.0 0.00 0.00 0.00 52 1009.4
20260506211552 16 0 0.0 0.0 0.00 0.00 0.00 52 1009.4
20260506211027 16 0 0.0 0.0 0.00 0.00 0.00 51 1009.4
20260506210527 16 0 0.0 0.0 0.00 0.00 0.00 50 1009.3
20260506210046 16 0 0.0 1.6 0.00 0.00 0.00 50 1009.3
20260506205527 16 0 0.0 3.2 0.00 0.00 0.00 49 1009.3
20260506205027 16 42 0.0 3.2 0.00 0.00 0.00 49 1009.3
20260506204542 16 0 0.0 0.0 0.00 0.00 0.00 49 1009.2
20260506204029 16 0 0.0 0.0 0.00 0.00 0.00 49 1009.2
20260506203528 16 0 0.0 0.0 0.00 0.00 0.00 49 1009.1
20260506203041 16 0 0.0 0.0 0.00 0.00 0.00 47 1009.0
20260506202528 16 0 0.0 0.0 0.00 0.00 0.00 47 1009.1
20260506202029 17 0 0.0 6.4 0.00 0.00 0.00 46 1009.0
20260506201548 17 0 0.0 6.4 0.00 0.00 0.00 46 1009.1
20260506201028 17 43 0.0 6.4 0.00 0.00 0.00 48 1009.0
20260506200531 17 0 0.0 0.0 0.00 0.00 0.00 47 1009.0
20260506200039 17 0 0.0 0.0 0.00 0.00 0.00 45 1008.9
20260506195531 18 0 0.0 0.0 0.00 0.00 0.00 44 1008.9
20260506195029 18 0 0.0 0.0 0.00 0.00 0.00 44 1008.8
20260506194544 18 0 0.0 0.0 0.00 0.00 0.00 44 1008.8
20260506194029 18 0 0.0 1.6 0.00 0.00 0.00 43 1008.9
20260506193528 18 0 0.0 1.6 0.00 0.00 0.00 44 1008.9
20260506193051 19 0 0.0 1.6 0.00 0.00 0.00 44 1008.9
20260506192527 20 202 0.0 1.6 0.00 0.00 0.00 43 1008.8
20260506192027 20 0 0.0 1.6 0.00 0.00 0.00 40 1008.8
20260506191539 20 0 0.0 1.6 0.00 0.00 0.00 40 1008.8
20260506191028 20 0 0.0 4.8 0.00 0.00 0.00 40 1008.9
20260506190529 21 322 1.6 4.8 0.00 0.00 0.00 38 1008.9
20260506190039 21 0 0.0 0.0 0.00 0.00 0.00 33 1008.8
20260506185527 21 0 0.0 0.0 0.00 0.00 0.00 33 1008.8
20260506185025 21 0 0.0 0.0 0.00 0.00 0.00 34 1008.8
20260506184547 21 0 0.0 0.0 0.00 0.00 0.00 35 1008.9
20260506184028 21 0 0.0 0.0 0.00 0.00 0.00 35 1008.8
20260506183531 21 0 0.0 1.6 0.00 0.00 0.00 35 1008.9
20260506183042 21 0 0.0 3.2 0.00 0.00 0.00 34 1008.9
20260506182528 20 0 0.0 3.2 0.00 0.00 0.00 38 1008.9
20260506182029 20 159 0.0 4.8 0.00 0.00 0.00 38 1008.9
20260506181554 20 0 0.0 4.8 0.00 0.00 0.00 39 1008.9
20260506181029 20 0 0.0 3.2 0.00 0.00 0.00 38 1008.9
20260506180529 20 0 0.0 3.2 0.00 0.00 0.00 38 1008.9
20260506180049 20 0 0.0 4.8 0.00 0.00 0.00 38 1008.9
20260506175530 20 0 0.0 4.8 0.00 0.00 0.00 39 1009.1
20260506175028 20 238 1.6 6.4 0.00 0.00 0.00 38 1009.0
20260506174546 20 315 1.6 8.0 0.00 0.00 0.00 37 1009.2
20260506174028 20 265 1.6 8.0 0.00 0.00 0.00 36 1009.3
20260506173529 21 146 4.8 8.0 0.00 0.00 0.00 35 1009.3
20260506173105 21 229 1.6 8.0 0.00 0.00 0.00 34 1009.3
20260506172529 21 138 1.6 9.7 0.00 0.00 0.00 34 1009.3
20260506172028 21 207 3.2 11.3 0.00 0.00 0.00 33 1009.3
20260506171546 21 198 4.8 11.3 0.00 0.00 0.00 34 1009.3
20260506171029 21 278 0.0 6.4 0.00 0.00 0.00 33 1009.3
20260506170529 21 291 0.0 9.7 0.00 0.00 0.00 33 1009.3
20260506170044 21 291 3.2 9.7 0.00 0.00 0.00 33 1009.4
20260506165528 21 278 3.2 12.9 0.00 0.00 0.00 34 1009.4
20260506165029 21 310 6.4 12.9 0.00 0.00 0.00 33 1009.5
20260506164539 21 281 4.8 17.7 0.00 0.00 0.00 34 1009.5
20260506164030 21 302 6.4 17.7 0.00 0.00 0.00 33 1009.5
20260506163527 21 278 6.4 14.5 0.00 0.00 0.00 33 1009.5
20260506163039 21 355 6.4 14.5 0.00 0.00 0.00 33 1009.6
20260506162528 21 36 1.6 12.9 0.00 0.00 0.00 33 1009.5
20260506162030 21 300 0.0 14.5 0.00 0.00 0.00 33 1009.6
20260506161539 21 0 6.4 14.5 0.00 0.00 0.00 33 1009.6
20260506161025 21 315 4.8 12.9 0.00 0.00 0.00 33 1009.6
20260506160529 21 343 6.4 14.5 0.00 0.00 0.00 33 1009.7
20260506160058 21 313 6.4 14.5 0.00 0.00 0.00 33 1009.7
20260506155524 21 288 6.4 12.9 0.00 0.00 0.00 33 1009.7
20260506155028 21 336 3.2 12.9 0.00 0.00 0.00 33 1009.7
20260506154544 21 305 6.4 14.5 0.00 0.00 0.00 32 1009.8
20260506154025 21 231 4.8 14.5 0.00 0.00 0.00 33 1009.7
20260506153528 21 242 1.6 14.5 0.00 0.00 0.00 33 1009.8
20260506153046 21 315 4.8 14.5 0.00 0.00 0.00 33 1009.8
20260506152524 21 293 9.7 14.5 0.00 0.00 0.00 33 1009.9
20260506152028 21 274 8.0 12.9 0.00 0.00 0.00 33 1009.9
20260506151539 21 0 4.8 12.9 0.00 0.00 0.00 34 1010.1
20260506151024 21 244 6.4 12.9 0.00 0.00 0.00 34 1010.1
20260506150524 20 0 3.2 11.3 0.00 0.00 0.00 34 1010.2
20260506150050 20 279 1.6 9.7 0.00 0.00 0.00 35 1010.2
20260506145525 20 314 6.4 16.1 0.00 0.00 0.00 34 1010.4
20260506145025 20 333 6.4 16.1 0.00 0.00 0.00 35 1010.5
20260506144545 21 329 3.2 14.5 0.00 0.00 0.00 36 1010.6
20260506144024 20 310 4.8 14.5 0.00 0.00 0.00 37 1010.7
20260506143525 20 273 1.6 14.5 0.00 0.00 0.00 37 1010.7
20260506143039 20 293 6.4 14.5 0.00 0.00 0.00 36 1010.8
20260506142526 20 331 8.0 14.5 0.00 0.00 0.00 38 1010.9
20260506142025 20 327 6.4 16.1 0.00 0.00 0.00 37 1010.8
20260506141540 21 83 0.0 16.1 0.00 0.00 0.00 37 1010.9
20260506141027 21 71 6.4 16.1 0.00 0.00 0.00 36 1011.0
20260506140525 21 282 1.6 11.3 0.00 0.00 0.00 34 1011.1
20260506140039 21 0 3.2 11.3 0.00 0.00 0.00 34 1011.1
20260506135525 21 189 1.6 14.5 0.00 0.00 0.00 34 1011.2
20260506135024 21 184 4.8 14.5 0.00 0.00 0.00 35 1011.3
20260506134538 21 171 4.8 11.3 0.00 0.00 0.00 36 1011.3
20260506134024 20 216 0.0 11.3 0.00 0.00 0.00 37 1011.4
20260506133529 20 147 4.8 9.7 0.00 0.00 0.00 37 1011.5
20260506133041 20 0 0.0 9.7 0.00 0.00 0.00 38 1011.5
20260506132525 19 250 1.6 11.3 0.00 0.00 0.00 39 1011.6
20260506132024 19 0 4.8 11.3 0.00 0.00 0.00 38 1011.7
20260506131555 18 38 0.0 8.0 0.00 0.00 0.00 40 1011.8
20260506131025 18 9 3.2 9.7 0.00 0.00 0.00 40 1011.8
20260506130527 18 0 4.8 14.5 0.00 0.00 0.00 40 1011.9
20260506130043 19 328 6.4 14.5 0.00 0.00 0.00 40 1011.9
20260506125527 19 350 4.8 14.5 0.00 0.00 0.00 40 1012.0
20260506125028 20 25 6.4 14.5 0.00 0.00 0.00 40 1012.0
20260506124538 20 20 8.0 14.5 0.00 0.00 0.00 41 1012.0
20260506124028 20 58 6.4 12.9 0.00 0.00 0.00 41 1012.0
20260506123531 19 202 0.0 4.8 0.00 0.00 0.00 40 1012.2
20260506123046 19 0 1.6 11.3 0.00 0.00 0.00 41 1012.3
20260506122531 19 0 3.2 11.3 0.00 0.00 0.00 40 1012.3
20260506122028 20 154 3.2 8.0 0.00 0.00 0.00 40 1012.5
20260506121543 20 149 0.0 4.8 0.00 0.00 0.00 40 1012.5
20260506121028 20 0 0.0 4.8 0.00 0.00 0.00 40 1012.6
20260506120532 19 0 0.0 8.0 0.00 0.00 0.00 43 1012.6
20260506120040 18 0 3.2 8.0 0.00 0.00 0.00 44 1012.7
20260506115529 18 78 3.2 6.4 0.00 0.00 0.00 43 1012.7
20260506115028 18 90 3.2 6.4 0.00 0.00 0.00 44 1012.7
20260506114539 18 17 1.6 11.3 0.00 0.00 0.00 45 1012.7
20260506114031 18 0 4.8 14.5 0.00 0.00 0.00 44 1012.8
20260506113527 18 27 6.4 14.5 0.00 0.00 0.00 44 1012.8
20260506113039 18 0 1.6 6.4 0.00 0.00 0.00 44 1013.0
20260506112529 18 0 1.6 12.9 0.00 0.00 0.00 44 1012.9
20260506112028 17 102 1.6 17.7 0.00 0.00 0.00 44 1012.9
20260506111538 17 81 6.4 17.7 0.00 0.00 0.00 45 1012.9
20260506111030 17 61 3.2 11.3 0.00 0.00 0.00 46 1013.1
20260506110532 18 23 3.2 12.9 0.00 0.00 0.00 45 1013.1
20260506110042 18 348 4.8 12.9 0.00 0.00 0.00 45 1013.1
20260506105527 18 5 4.8 14.5 0.00 0.00 0.00 45 1013.0
20260506105030 18 0 4.8 14.5 0.00 0.00 0.00 46 1013.1
20260506104546 17 92 4.8 12.9 0.00 0.00 0.00 47 1013.1
20260506104027 17 331 1.6 12.9 0.00 0.00 0.00 47 1013.1
20260506103524 17 52 4.8 12.9 0.00 0.00 0.00 48 1013.1
20260506103041 17 0 0.0 11.3 0.00 0.00 0.00 48 1013.1
20260506102528 17 80 3.2 11.3 0.00 0.00 0.00 49 1013.1
20260506102028 17 105 3.2 11.3 0.00 0.00 0.00 50 1013.2
20260506101539 17 114 3.2 12.9 0.00 0.00 0.00 49 1013.4
20260506101028 16 88 3.2 14.5 0.00 0.00 0.00 50 1013.4
20260506100529 16 81 4.8 14.5 0.00 0.00 0.00 51 1013.5
20260506100046 16 42 0.0 6.4 0.00 0.00 0.00 53 1013.4
20260506095528 16 0 0.0 9.7 0.00 0.00 0.00 54 1013.3
20260506095027 16 329 4.8 12.9 0.00 0.00 0.00 54 1013.4
20260506094554 16 26 3.2 12.9 0.00 0.00 0.00 55 1013.4
20260506094028 16 16 4.8 12.9 0.00 0.00 0.00 55 1013.4